�������C�����ː����j�^�v���󋵏��
Date,Time,Cs137(Bq/L),Cs134(Bq/L),�S��(Bq/L)
2020/02/28,00:00,0.052,ND,24
2020/02/28,00:10,ND,ND,26
2020/02/28,00:20,0.048,ND,24
2020/02/28,00:30,0.055,ND,24
2020/02/28,00:40,ND,ND,24
2020/02/28,00:50,ND,ND,27
2020/02/28,01:00,0.050,ND,25
2020/02/28,01:10,ND,ND,26
2020/02/28,01:20,ND,ND,28
2020/02/28,01:30,ND,ND,29
2020/02/28,01:40,ND,ND,27
2020/02/28,01:50,ND,ND,26
2020/02/28,02:00,ND,ND,28
2020/02/28,02:10,ND,ND,25
2020/02/28,02:20,ND,ND,25
2020/02/28,02:30,ND,ND,24
2020/02/28,02:40,0.052,ND,24
2020/02/28,02:50,0.062,ND,23
2020/02/28,03:00,0.068,ND,22
2020/02/28,03:10,0.068,ND,24
2020/02/28,03:20,ND,ND,26
2020/02/28,03:30,ND,ND,26
2020/02/28,03:40,ND,ND,27
2020/02/28,03:50,ND,ND,26
2020/02/28,04:00,ND,ND,29
2020/02/28,04:10,0.059,ND,28
2020/02/28,04:20,0.087,ND,23
2020/02/28,04:30,0.091,ND,22
2020/02/28,04:40,0.093,ND,24
2020/02/28,04:50,0.094,ND,28
2020/02/28,05:00,0.082,ND,26
2020/02/28,05:10,0.080,ND,26
2020/02/28,05:20,0.086,ND,29
2020/02/28,05:30,0.078,ND,30
2020/02/28,05:40,0.087,ND,27
2020/02/28,05:50,0.090,ND,25
2020/02/28,06:00,0.10,ND,22
2020/02/28,06:10,0.094,ND,24
2020/02/28,06:20,0.079,ND,23
2020/02/28,06:30,0.072,ND,22
2020/02/28,06:40,0.075,ND,22
2020/02/28,06:50,0.061,ND,22
2020/02/28,07:00,0.055,ND,24
2020/02/28,07:10,0.064,ND,24
2020/02/28,07:20,0.062,ND,24
2020/02/28,07:30,0.073,ND,25
2020/02/28,07:40,0.068,ND,28
2020/02/28,07:50,0.078,ND,30
2020/02/28,08:00,0.083,ND,28
2020/02/28,08:10,0.089,ND,29
2020/02/28,08:20,0.12,ND,29
2020/02/28,08:30,0.11,ND,28
2020/02/28,08:40,0.12,ND,28
2020/02/28,08:50,0.13,ND,27
2020/02/28,09:00,0.13,ND,28
2020/02/28,09:10,0.12,ND,25
2020/02/28,09:20,0.097,ND,26
2020/02/28,09:30,0.12,ND,25
2020/02/28,09:40,0.11,ND,25
2020/02/28,09:50,0.11,ND,24
2020/02/28,10:00,0.16,ND,25
2020/02/28,10:10,0.18,ND,24
2020/02/28,10:20,0.17,ND,24
2020/02/28,10:30,0.16,ND,27
2020/02/28,10:40,0.18,ND,25
2020/02/28,10:50,0.18,ND,26
2020/02/28,11:00,0.16,ND,24
2020/02/28,11:10,0.15,ND,30
2020/02/28,11:20,0.12,ND,28
2020/02/28,11:30,0.14,ND,24
2020/02/28,11:40,0.13,ND,23
2020/02/28,11:50,0.12,ND,22
2020/02/28,12:00,0.12,ND,22
2020/02/28,12:10,0.12,ND,20
2020/02/28,12:20,0.11,ND,21
2020/02/28,12:30,0.11,ND,25
2020/02/28,12:40,0.095,ND,26
2020/02/28,12:50,0.091,ND,25
2020/02/28,13:00,0.097,ND,23
2020/02/28,13:10,0.092,ND,24
2020/02/28,13:20,0.091,ND,23
2020/02/28,13:30,0.082,ND,23
2020/02/28,13:40,0.094,ND,22
2020/02/28,13:50,0.079,ND,25
2020/02/28,14:00,0.081,ND,27
2020/02/28,14:10,0.072,ND,27
2020/02/28,14:20,0.079,ND,30
2020/02/28,14:30,0.085,ND,30
2020/02/28,14:40,0.070,ND,31
2020/02/28,14:50,0.093,ND,31
2020/02/28,15:00,0.085,ND,30
2020/02/28,15:10,0.091,ND,27
2020/02/28,15:20,0.095,ND,26
2020/02/28,15:30,0.11,ND,24
2020/02/28,15:40,0.12,ND,24
2020/02/28,15:50,0.11,ND,24
2020/02/28,16:00,0.12,ND,26
2020/02/28,16:10,0.11,ND,27
2020/02/28,16:20,0.089,ND,28
2020/02/28,16:30,0.073,ND,29
2020/02/28,16:40,0.065,ND,30
2020/02/28,16:50,0.060,ND,30
2020/02/28,17:00,0.061,ND,28
2020/02/28,17:10,0.053,ND,28
2020/02/28,17:20,0.068,ND,29
2020/02/28,17:30,0.058,ND,26
2020/02/28,17:40,0.072,ND,24
2020/02/28,17:50,0.058,ND,23
2020/02/28,18:00,ND,ND,23
2020/02/28,18:10,ND,ND,20
2020/02/28,18:20,ND,ND,17
2020/02/28,18:30,ND,ND,18
2020/02/28,18:40,ND,ND,17
2020/02/28,18:50,ND,ND,16
2020/02/28,19:00,ND,ND,12
2020/02/28,19:10,ND,ND,16
2020/02/28,19:20,0.055,ND,15
2020/02/28,19:30,0.053,ND,16
2020/02/28,19:40,0.067,ND,18
2020/02/28,19:50,0.068,ND,20
2020/02/28,20:00,0.10,ND,25
2020/02/28,20:10,0.12,ND,24
2020/02/28,20:20,0.091,ND,26
2020/02/28,20:30,0.078,ND,25
2020/02/28,20:40,0.11,ND,26
2020/02/28,20:50,0.11,ND,22
2020/02/28,21:00,0.078,ND,22
2020/02/28,21:10,0.091,ND,22
2020/02/28,21:20,0.085,ND,24
2020/02/28,21:30,0.094,ND,25
2020/02/28,21:40,0.12,ND,25
2020/02/28,21:50,0.12,ND,28
2020/02/28,22:00,0.12,ND,27
2020/02/28,22:10,0.12,ND,27
2020/02/28,22:20,0.18,ND,26
2020/02/28,22:30,0.19,ND,26
2020/02/28,22:40,0.18,ND,24
2020/02/28,22:50,0.18,ND,22
2020/02/28,23:00,0.15,ND,22
2020/02/28,23:10,0.14,ND,21
2020/02/28,23:20,0.13,ND,21
2020/02/28,23:30,0.14,ND,20
2020/02/28,23:40,0.16,ND,21
2020/02/28,23:50,0.15,ND,22
